AirNav   Free Bose QuietComfort 20
 
 1403 users online  

09W South Capitol Street Heliport
Washington, District of Columbia, USA

GOING TO WASHINGTON?


FAA INFORMATION EFFECTIVE 05 DECEMBER 2019

Location

FAA Identifier: 09W
Lat/Long: 38-52-07.4040N 077-00-26.9130W
38-52.123400N 077-00.448550W
38.8687233,-77.0074758
(estimated)
Elevation: 10 ft. / 3.0 m (surveyed)
Variation: 09W (1985)
Time zone: UTC -5 (UTC -4 during Daylight Saving Time)
Zip code: 20398

Heliport Operations

Heliport use: Open to the public
Activation date: 04/1974
Control tower: no
ARTCC: WASHINGTON CENTER
FSS: LEESBURG FLIGHT SERVICE STATION
NOTAMs facility: DCA (NOTAM-D service available)
Attendance: MON-FRI 0700-1900, ALL SAT-SUN 1100-1900
OPEN HOLIDAYS UPON RESERVATION.
Wind indicator: lighted
Segmented circle: no
Lights: SS-SR
Beacon: white-green-yellow (heliport)
Operates sunset to sunrise.

Heliport Communications

CTAF/UNICOM: 123.05
WX ASOS at DCA (1.8 nm SW): 132.65 (703-412-8140)
WX AWOS-3 at CGS (8 nm NE): 121.225 (301-864-5497)
WX AWOS-3 at FME (17 nm NE): 123.925
WX AWOS-3PT at GAI (19 nm N): 128.275 (301-977-2971)

Nearby radio navigation aids

VOR radial/distance  VOR name  Freq  Var
DCAr077/1.5WASHINGTON VOR/DME111.0009W
ADWr309/7.6ANDREWS VORTAC113.1010W
OTTr318/15.7NOTTINGHAM VORTAC113.7010W
AMLr108/21.8ARMEL VOR/DME113.5008W
BALr233/24.3BALTIMORE VORTAC115.1011W
BRVr036/35.8BROOKE VORTAC114.5009W
FDKr160/(36.8)FREDERICK VOR109.0008W
EMIr190/37.6WESTMINSTER VORTAC117.9008W

 
NDB name  Hdg/Dist  Freq  Var  ID
OXONN020/6.233211WDCA -.. -.-. .-
GEORGETOWN133/6.632309WGTN --. - -.
DAVEE030/13.322309WDAA -.. .- .-
ELLICOTT214/27.337111WFND ..-. -. -..

Heliport Services

Fuel available: A
Airframe service: NONE
Powerplant service: NONE

Runway Information

Helipad H1

Dimensions: 60 x 60 ft. / 18 x 18 m
Surface: asphalt, in good condition
Runway edge lights: PERI
Latitude: 38-52.123400N
Longitude: 077-00.448550W
Elevation: 10.0 ft.
Traffic pattern: leftleft
Markings: , in fair condition
Approach lights: RLLS

Heliport Ownership and Management from official FAA records

Ownership: Privately-owned
Owner: SOUTH CAPITOL STREET HELIPORT, LLC
115 VALLEYVIEW RD
FAIRFIELD, CT 06824
Phone 203-856-6407
Manager: DON SCIMONELLI
1724 S CAPITAL ST SE
WASHINGTON, DC 20003
Phone 202-484-8616

Heliport Operational Statistics

Aircraft based on the field: 1
Helicopters: 1
    
Aircraft operations: avg 33/month *
50% transient general aviation
50% local general aviation
* for 12-month period ending 05 December 1997

Additional Remarks

A52-H1 75 FT LGTD BRIDGE 500 FT E; + 50 FT STACK 400 FT W; +40 FT BLDG 60 FT NE.
INGRESS & EGRESS ROUTES NE & SW OVER ANACOSTIA RIVER.
LARGE LOOSE GRAVEL SOUTH & WEST OF PAVEMENT.
FOR CD CTC POTOMAC APCH AT 866-599-3874.

Instrument Procedures

There are no published instrument procedures at 09W.

Some nearby airports with instrument procedures:

KDCA - Ronald Reagan Washington National Airport (2 nm SW)
KADW - Joint Base Andrews (7 nm SE)
KVKX - Potomac Airfield (8 nm S)
KCGS - College Park Airport (8 nm NE)
W32 - Washington Executive Airport/Hyde Field (8 nm SE)
W00 - Freeway Airport (12 nm E)
KDAA - Davison Army Airfield (12 nm SW)
2W5 - Maryland Airport (17 nm S)
KFME - Tipton Airport (17 nm NE)
KGAI - Montgomery County Airpark (19 nm N)
 
Loc | Ops | Rwys | IFR | FBO | Links
Com | Nav | Svcs | Stats | Notes
Area around 09W (South Capitol Street Heliport)
 
Road maps at: MapQuest Bing Google
 
Aerial photo
WARNING: Photo may not be current or correct
Aerial photo of 09W (South Capitol Street Heliport)
Photo courtesy of Steven Bussman
Bussman Aviation
Photo taken 29-Apr-2012
looking northeast.

Do you have a better or more recent aerial photo of South Capitol Street Heliport that you would like to share? If so, please send us your photo.

 
Sectional chart

 
Airport distance calculator
Flying to South Capitol Street Heliport? Find the distance to fly.

From to 09W

Sunrise and sunset
Times for 12-Dec-2019
 Local
(UTC-5)
 Zulu
(UTC)
Morning civil twilight06:4811:48
Sunrise07:1812:18
Sunset16:4521:45
Evening civil twilight17:1522:15

Current date and time
Zulu (UTC)  12-Dec-2019 16:39:19
Local (UTC-5)  12-Dec-2019 11:39:19
 
METAR
KDCA 
2nm SW 
121552Z 00000KT 10SM SCT250 02/M09 A3077 RMK AO2 SLP418 T00221094 $
KADW 
7nm SE 
121600Z AUTO 00000KT 1 1/8SM HZ CLR 02/M10 A3074 RMK AO2 VIS 1/2V1 1/8 SLP420 $
KCGS 
8nm NE 
121616Z AUTO 00000KT 10SM CLR 01/M13 A3075 RMK AO1 T00101131
KDAA 
12nm SW 
121556Z AUTO 00000KT 10SM CLR 02/M11 A3076 RMK AO2 SLP420 T00211108 $
KFME 
17nm NE 
121615Z AUTO 07003KT 10SM CLR 00/M09 A3077 RMK AO1
KGAI 
19nm N 
121556Z AUTO VRB03KT 10SM CLR 01/M10 A3073 RMK AO2 SLP428 T00061100 FZRANO
TAF
KDCA 
2nm SW 
121503Z 1215/1318 05006KT P6SM FEW250 FM130500 05004KT P6SM BKN130 FM130700 VRB03KT P6SM BKN040 FM130900 VRB03KT P6SM BKN030 FM131500 VRB03KT P6SM -RA OVC020
KADW 
7nm SE 
120900Z 1209/1315 01009KT 9999 SKC QNH3063INS BECMG 1212/1213 01006KT 9999 SKC QNH3067INS WND 10004KT AFT 18 BECMG 1302/1303 VRB04KT 9999 SCT030 QNH3053INS BECMG 1304/1305 02005KT 9999 BKN030 QNH3042INS BECMG 1313/1314 35005KT 9999 BKN020 QNH3042INS TX03/1219Z TNM03/1212Z
KDAA 
12nm SW 
121000Z 1210/1316 VRB06KT 9999 SKC QNH3057INS BECMG 1305/1306 VRB06KT 9999 OVC020 QNH3042INS BECMG 1311/1312 VRB06KT 9000 BR OVC006 510063 520903 QNH3037INS TX02/1217Z TNM03/1211Z
NOTAMs
Click for the latest NOTAMs
NOTAMs are issued by the DoD/FAA and will open in a separate window not controlled by AirNav.

 

 
 

FBO, Fuel Providers, and Aircraft Ground Support

  
 Business Name 
 
 Contact 
 
 Services / Description 
 
Fuel Prices
 
Comments
  
South Capitol Street Heliport FBO UNICOM 123.05
202-484-8616
202-527-8687
[email]

Like us on facebook
Airport management, Aviation fuel, Aircraft parking (ramp or tiedown), Hangars, Hangar leasing / sales, Passenger terminal and lounge, ...
 
U.S. Government AIR Card  
 
More info about South Capitol Street Heliport FBO
independent
Jet A
AS $7.85 
 Updated 11-Jun-2019
 
   write
AS=Assisted/Self Service
Update Fuel Prices
 

Would you like to see your business listed on this page?

 If your business provides an interesting product or service to pilots, flight crews, aircraft, or users of the South Capitol Street Heliport, you should consider listing it here.  To start the listing process, click on the button below
 
Add a business
 

Other Pages about South Capitol Street Heliport

Update a link
 
Copyright © AirNav, LLC. All rights reserved. Privacy Policy  Contact